Location: High Cliff State Park
(44.1557°N, 88.2948°W)
Time: 08:37:24
(UTC-05:00)

Amateur Radio Satellites - All Passes

Search period start: 23 June 2017 08:07
Search period end: 24 June 2017 08:07
Location: High Cliff State Park, 44.1557°N, 88.2948°W

Satellite Date Start Highest point End Downlink Frequencies (MHz)
Time Altitude Azimuth
AAUSAT CUBESAT 2 23 Jun 08:16:43 08:19:54 21° 93° (E) 08:23:04 437.432
KAITUO 1B 23 Jun 08:18:33 08:21:13 19° 294° (WNW) 08:23:52 145.475/437.950
TIGRISAT 23 Jun 08:33:51 08:35:33 12° 58° (ENE) 08:37:15 435.000
CUTE-I 23 Jun 08:42:16 08:46:24 23° 298° (WNW) 08:50:33 437.470
CUBEBUG 2 23 Jun 08:46:49 08:51:36 79° 104° (ESE) 08:56:14 437.445
SEEDS 23 Jun 08:52:11 08:56:20 71° 285° (WNW) 09:00:27 437.485
AO-73 23 Jun 08:54:34 08:58:29 29° 95° (E) 09:02:18 145.935
XW-2A 23 Jun 08:57:04 09:00:19 41° 287° (WNW) 09:03:32 145.665 - 145.685
STRAND 1 23 Jun 08:59:24 09:02:05 14° 271° (W) 09:04:47 437.568
YUBILEINY 23 Jun 09:02:29 09:11:05 51° 74° (ENE) 09:19:34 435.215
CUTE 1.7 + AOD 2 23 Jun 09:04:38 09:08:27 34° 290° (WNW) 09:12:13 437.475
RS-15 23 Jun 09:07:39 09:15:53 22° 262° (W) 09:23:53 29.354- 29.394
M-CUBED/EXP-1 PRIME 23 Jun 09:12:11 09:15:31 88° 71° (ENE) 09:18:47 437.505
UNISAT 6 23 Jun 09:12:27 09:16:24 29° 67° (ENE) 09:20:25 437.425
PRISM 23 Jun 09:13:01 09:16:28 28° 68° (ENE) 09:19:57 437.425
HO-68 23 Jun 09:17:47 09:24:44 54° 294° (WNW) 09:31:38 435.675
Oscar 11 23 Jun 09:24:49 09:29:00 46° 99° (E) 09:33:08 .
UWE-3 23 Jun 09:26:26 09:31:03 68° 286° (WNW) 09:35:33 435.000/436.395/437.385
FO-29 23 Jun 09:26:44 09:32:35 59° 70° (ENE) 09:39:17 435.910
ZACube-1 23 Jun 09:27:33 09:32:04 73° 102° (ESE) 09:36:27 437.345
ISS 23 Jun 09:27:42 09:30:31 27° 138° (SE) 09:33:21 437.550
Tancredo 1 23 Jun 09:40:00 09:43:01 67° 146° (SE) 09:46:03 437.200
O/OREOS (USA 219) 23 Jun 09:41:37 09:43:01 11° 263° (W) 09:44:26 437.305
AAUSAT CUBESAT 2 23 Jun 09:51:44 09:55:25 33° 290° (WNW) 09:59:06 437.432
TIGRISAT 23 Jun 10:06:53 10:11:28 88° 251° (WSW) 10:16:11 435.000
DELFI C3 23 Jun 10:07:29 10:11:06 35° 97° (E) 10:14:43 145.870
EO-88 23 Jun 10:12:02 10:15:07 25° 95° (E) 10:18:11 145.990 - 145.960
CUBEBUG 2 23 Jun 10:25:13 10:27:32 14° 300° (WNW) 10:29:49 437.445
AO-73 23 Jun 10:30:47 10:34:38 29° 293° (WNW) 10:38:24 145.935
POLYITAN 1 23 Jun 10:34:35 10:36:51 14° 61° (ENE) 10:39:08 437.675
QB50P2 23 Jun 10:44:22 10:47:23 19° 64° (ENE) 10:50:25 145.880/145.840
PRISM 23 Jun 10:48:20 10:51:43 25° 265° (W) 10:55:07 437.425
UNISAT 6 23 Jun 10:48:56 10:53:01 31° 265° (W) 10:57:11 437.425
YUBILEINY 23 Jun 10:59:44 11:07:36 38° 275° (W) 11:15:26 435.215
AIST 2D 23 Jun 11:00:49 11:04:13 44° 73° (ENE) 11:07:38 435.315
Oscar 11 23 Jun 11:01:50 11:04:47 18° 296° (WNW) 11:07:43 .
ISS 23 Jun 11:03:41 11:06:52 47° 335° (NNW) 11:10:05 437.550
ZACube-1 23 Jun 11:05:34 11:07:43 13° 300° (WNW) 11:09:50 437.345
HO-68 23 Jun 11:08:24 11:10:54 12° 314° (NW) 11:13:23 435.675
EO-79 23 Jun 11:08:59 11:12:42 30° 68° (ENE) 11:16:27 145.935-145.965
FO-29 23 Jun 11:13:27 11:18:13 24° 271° (W) 11:23:30 435.910
Tancredo 1 23 Jun 11:16:10 11:18:50 26° 344° (NNW) 11:21:30 437.200
ESTCUBE 1 23 Jun 11:20:31 11:23:14 16° 91° (E) 11:25:55 437.505/2401.250
DUCHIFAT 1 23 Jun 11:25:56 11:29:50 37° 70° (ENE) 11:33:45 145.980
PCSat 23 Jun 11:29:04 11:30:57 12° 102° (ESE) 11:32:52 145.827
NANOSAT C BR1 23 Jun 11:32:48 11:36:52 49° 72° (ENE) 11:41:00 145.865
DELFI C3 23 Jun 11:42:48 11:45:39 19° 294° (WNW) 11:48:30 145.870
EO-88 23 Jun 11:45:49 11:48:41 22° 292° (WNW) 11:51:33 145.990 - 145.960
POLYITAN 1 23 Jun 12:07:54 12:12:07 62° 258° (WSW) 12:16:24 437.675
Oscar 19 23 Jun 12:10:18 12:13:46 19° 60° (ENE) 12:17:14 437.125/150
SPROUT 23 Jun 12:14:11 12:16:40 15° 91° (E) 12:19:07 437.525
LO-87 23 Jun 12:16:17 12:19:54 69° 285° (WNW) 12:23:31 145.935 - 145.965
QB50P2 23 Jun 12:18:48 12:22:52 43° 261° (W) 12:26:58 145.880/145.840
AIST 2D 23 Jun 12:36:15 12:37:40 12° 270° (W) 12:39:06 435.315
ISS 23 Jun 12:41:14 12:43:54 22° 355° (N) 12:46:34 437.550
Gurwin Techsat 1B 23 Jun 12:42:42 12:46:48 23° 62° (ENE) 12:50:54 435.225
EO-79 23 Jun 12:44:55 12:48:27 25° 265° (W) 12:52:01 145.935-145.965
BUGSAT 1 23 Jun 12:45:57 12:50:04 85° 76° (ENE) 12:54:16 437.445
Tancredo 1 23 Jun 12:52:45 12:55:06 20° 4° (N) 12:57:27 437.200
ESTCUBE 1 23 Jun 12:55:59 13:00:21 54° 288° (WNW) 13:04:43 437.505/2401.250
DUCHIFAT 1 23 Jun 13:02:26 13:05:36 21° 267° (W) 13:08:50 145.980
PCSat 23 Jun 13:08:02 13:13:28 83° 120° (ESE) 13:18:56 145.827
VELOX 1 23 Jun 13:08:29 13:12:48 50° 100° (E) 13:17:06 145.980
NANOSAT C BR1 23 Jun 13:10:16 13:12:52 16° 269° (W) 13:15:28 145.865
AO-7 23 Jun 13:36:06 13:42:23 25° 50° (NE) 13:48:42 .
DX 1 23 Jun 13:36:25 13:40:23 33° 97° (E) 13:44:19 434.975-435.025
Oscar 19 23 Jun 13:47:28 13:52:34 65° 258° (WSW) 13:57:43 437.125/150
SPROUT 23 Jun 13:48:40 13:52:53 53° 287° (WNW) 13:57:04 437.525
SO-50 23 Jun 13:55:32 13:57:01 11° 108° (ESE) 13:58:30 436.795
50 SAT 23 Jun 13:57:29 14:00:54 85° 279° (W) 14:04:18 437.505
UKube-1 23 Jun 13:58:38 14:02:41 38° 98° (E) 14:06:42 .
ISS 23 Jun 14:18:10 14:21:05 28° 15° (NNE) 14:24:01 437.550
ITAMSAT 1 23 Jun 14:20:38 14:24:46 25° 63° (ENE) 14:28:55 435.822/435.867
Gurwin Techsat 1B 23 Jun 14:21:13 14:26:23 52° 260° (W) 14:31:36 435.225
Tancredo 1 23 Jun 14:28:18 14:31:15 42° 24° (NNE) 14:34:10 437.200
VELOX 1 23 Jun 14:45:53 14:48:52 18° 297° (WNW) 14:51:51 145.980
PCSat 23 Jun 14:53:34 14:57:32 20° 320° (NW) 15:01:32 145.827
DX 1 23 Jun 15:12:51 15:16:25 25° 294° (WNW) 15:19:59 434.975-435.025
AO-7 23 Jun 15:25:50 15:34:10 88° 249° (WSW) 15:42:35 .
SO-50 23 Jun 15:32:13 15:36:47 86° 305° (NW) 15:41:21 436.795
UKube-1 23 Jun 15:35:10 15:38:28 22° 295° (WNW) 15:41:46 .
ITUPSAT 1 23 Jun 15:54:05 15:58:51 59° 101° (ESE) 16:03:33 437.325
ISS 23 Jun 15:54:31 15:57:49 71° 214° (SW) 16:01:05 437.550
MOZHAYETS 4 23 Jun 15:57:40 16:02:04 44° 98° (E) 16:06:26
ITAMSAT 1 23 Jun 15:58:56 16:03:56 47° 260° (W) 16:08:59 435.822/435.867
Tancredo 1 23 Jun 16:04:06 16:06:45 27° 221° (SW) 16:09:23 437.200
BEESAT 23 Jun 16:05:41 16:10:31 79° 104° (ESE) 16:15:17 436.000
CUBESAT XI-V 23 Jun 16:32:55 16:36:18 20° 92° (E) 16:39:41 437.345
DOVE 4 23 Jun 16:37:04 16:39:54 18° 64° (ENE) 16:42:48 437.250
CUTE-I 23 Jun 16:47:44 16:50:46 16° 58° (ENE) 16:53:50 437.470
LilacSat-2 23 Jun 16:48:58 16:49:53 11° 62° (ENE) 16:50:49 437.200
XW-2B 23 Jun 16:52:27 16:53:27 11° 62° (ENE) 16:54:28 145.730 - 145.750
XW-2C 23 Jun 17:06:18 17:08:40 16° 65° (ENE) 17:11:02 145.795 - 145.815
SO-50 23 Jun 17:15:02 17:17:55 16° 325° (NW) 17:20:47 436.795
AO-7 23 Jun 17:22:30 17:28:01 19° 270° (W) 17:33:36 .
KAITUO 1B 23 Jun 17:25:50 17:28:37 20° 67° (ENE) 17:31:24 145.475/437.950
ITUPSAT 1 23 Jun 17:33:01 17:36:12 18° 299° (WNW) 17:39:22 437.325
MOZHAYETS 4 23 Jun 17:35:30 17:38:56 21° 296° (WNW) 17:42:21
BEESAT 23 Jun 17:45:13 17:47:38 14° 301° (WNW) 17:50:02 436.000
KKS-1 23 Jun 17:48:10 17:52:40 79° 104° (ESE) 17:57:09 437.445
HO-68 23 Jun 18:01:07 18:07:06 29° 58° (ENE) 18:13:04 435.675
NUDT-PHONESAT 23 Jun 18:03:51 18:07:31 52° 74° (ENE) 18:11:13 437.300
CUBESAT XI-V 23 Jun 18:09:31 18:13:52 44° 289° (WNW) 18:18:13 437.345
XW-2F 23 Jun 18:11:59 18:15:48 85° 77° (ENE) 18:19:39 145.980 - 146.000
DOVE 4 23 Jun 18:13:21 18:17:16 42° 262° (W) 18:21:20 437.250
XW-2D 23 Jun 18:14:19 18:18:09 83° 258° (WSW) 18:22:01 145.860 - 145.880
LilacSat-2 23 Jun 18:19:44 18:23:36 70° 259° (WSW) 18:27:28 437.200
XW-2B 23 Jun 18:23:17 18:27:06 67° 259° (W) 18:30:56 145.730 - 145.750
CUTE 1.7 + AOD 2 23 Jun 18:23:30 18:26:37 20° 65° (ENE) 18:29:43 437.475
STARS 23 Jun 18:24:24 18:28:52 82° 102° (ESE) 18:33:19 437.465
CUTE-I 23 Jun 18:24:47 18:30:07 83° 256° (WSW) 18:35:30 437.470
XW-2C 23 Jun 18:38:50 18:42:31 42° 262° (W) 18:46:12 145.795 - 145.815
UWE-3 23 Jun 18:50:22 18:52:48 14° 61° (ENE) 18:55:15 435.000/436.395/437.385
KAITUO 1B 23 Jun 18:59:01 19:02:26 31° 264° (W) 19:05:50 145.475/437.950
AAUSAT CUBESAT 2 23 Jun 19:08:35 19:11:26 18° 65° (ENE) 19:14:16 437.432
RS-15 23 Jun 19:14:40 19:18:43 12° 91° (E) 19:22:46 29.354- 29.394
KKS-1 23 Jun 19:26:41 19:28:35 13° 301° (WNW) 19:30:30 437.445
STRAND 1 23 Jun 19:26:52 19:30:54 23° 93° (E) 19:34:54 437.568
XW-2A 23 Jun 19:29:03 19:32:29 76° 76° (ENE) 19:35:57 145.665 - 145.685
NUDT-PHONESAT 23 Jun 19:40:23 19:41:44 12° 270° (W) 19:43:05 437.300
SEEDS 23 Jun 19:44:41 19:48:54 88° 262° (W) 19:53:07 437.485
CUBEBUG 2 23 Jun 19:45:40 19:50:13 76° 75° (ENE) 19:54:57 437.445
HO-68 23 Jun 19:47:14 19:54:21 63° 257° (WSW) 20:01:31 435.675
AO-73 23 Jun 19:51:05 19:54:57 28° 68° (ENE) 19:58:53 145.935
CUTE 1.7 + AOD 2 23 Jun 19:58:10 20:02:10 40° 262° (W) 20:06:12 437.475
STARS 23 Jun 20:02:52 20:04:33 12° 301° (WNW) 20:06:14 437.465
CUTE-I 23 Jun 20:09:50 20:10:58 11° 273° (W) 20:12:07 437.470
PCSat 23 Jun 20:11:56 20:15:47 19° 39° (NE) 20:19:36 145.827
Oscar 11 23 Jun 20:20:42 20:24:49 42° 71° (ENE) 20:28:56 .
ZACube-1 23 Jun 20:24:01 20:28:31 67° 74° (ENE) 20:33:05 437.345
UWE-3 23 Jun 20:24:04 20:28:38 72° 259° (WSW) 20:33:18 435.000/436.395/437.385
AAUSAT CUBESAT 2 23 Jun 20:42:40 20:46:35 41° 262° (W) 20:50:30 437.432
BEESAT 3 23 Jun 20:49:22 20:51:41 15° 110° (ESE) 20:54:02 437.485
EO-88 23 Jun 20:52:01 20:54:12 15° 65° (ENE) 20:56:23 145.990 - 145.960
DELFI C3 23 Jun 20:54:25 20:57:38 25° 68° (ENE) 21:00:52 145.870
STRAND 1 23 Jun 21:05:21 21:10:18 48° 291° (WNW) 21:15:13 437.568
AO-85 23 Jun 21:08:12 21:12:04 43° 119° (ESE) 21:15:49 145.980
RS-15 23 Jun 21:16:33 21:28:17 59° 113° (ESE) 21:40:14 29.354- 29.394
CUBEBUG 2 23 Jun 21:25:40 21:27:25 12° 273° (W) 21:29:11 437.445
AO-73 23 Jun 21:27:03 21:31:05 31° 265° (W) 21:35:11 145.935
BEESAT 2 23 Jun 21:42:43 21:45:37 20° 112° (ESE) 21:48:35 435.950
HO-68 23 Jun 21:43:11 21:43:27 10° 276° (W) 21:43:45 435.675
PCSat 23 Jun 21:54:28 21:59:57 90° 52° (NE) 22:05:22 145.827
TIGRISAT 23 Jun 21:57:52 22:01:07 18° 91° (E) 22:04:18 435.000
Oscar 11 23 Jun 21:58:03 22:01:08 19° 268° (W) 22:04:14 .
ZACube-1 23 Jun 22:03:01 22:05:15 13° 271° (W) 22:07:29 437.345
YUBILEINY 23 Jun 22:04:57 22:13:26 56° 90° (E) 22:21:58 435.215
O/OREOS (USA 219) 23 Jun 22:13:18 22:17:48 65° 110° (ESE) 22:22:19 437.305
FO-29 23 Jun 22:18:16 22:25:51 52° 98° (E) 22:33:26 435.910
ESTCUBE 1 23 Jun 22:21:29 22:24:34 19° 63° (ENE) 22:27:39 437.505/2401.250
SO-50 23 Jun 22:22:18 22:25:44 21° 39° (NE) 22:29:12 436.795
M-CUBED/EXP-1 PRIME 23 Jun 22:22:19 22:25:51 45° 105° (ESE) 22:29:38 437.505
EO-88 23 Jun 22:24:04 22:27:33 40° 262° (W) 22:31:03 145.990 - 145.960
BEESAT 3 23 Jun 22:24:54 22:28:49 55° 308° (NW) 22:32:48 437.485
PRISM 23 Jun 22:27:13 22:31:00 35° 98° (E) 22:34:47 437.425
DELFI C3 23 Jun 22:29:01 22:32:20 26° 265° (W) 22:35:40 145.870
UNISAT 6 23 Jun 22:38:25 22:43:00 50° 99° (E) 22:47:27 437.425
AO-85 23 Jun 22:49:27 22:52:36 22° 317° (NW) 22:55:43 145.980
NO-84 23 Jun 22:50:52 22:54:48 63° 138° (SE) 22:59:02 435.350 FM
LO-87 23 Jun 22:53:24 22:56:52 55° 74° (ENE) 23:00:23 145.935 - 145.965
SPROUT 23 Jun 23:09:20 23:11:43 15° 62° (ENE) 23:14:06 437.525
BEESAT 2 23 Jun 23:19:16 23:23:05 43° 310° (NW) 23:26:59 435.950
RS-15 23 Jun 23:29:12 23:41:06 53° 318° (NW) 23:53:09 29.354- 29.394
TIGRISAT 23 Jun 23:33:33 23:38:05 50° 288° (WNW) 23:42:31 435.000
PCSat 23 Jun 23:40:05 23:42:31 13° 257° (WSW) 23:44:57 145.827
POLYITAN 1 23 Jun 23:51:55 23:55:01 19° 93° (E) 23:58:04 437.675
O/OREOS (USA 219) 23 Jun 23:54:46 23:57:40 16° 309° (NW) 00:00:35 437.305
ESTCUBE 1 23 Jun 23:56:38 00:01:00 50° 260° (W) 00:05:23 437.505/2401.250
AIST 2D 23 Jun 23:57:22 00:00:44 44° 98° (E) 00:04:05 435.315
M-CUBED/EXP-1 PRIME 23 Jun 23:57:53 00:00:03 15° 300° (WNW) 00:02:18 437.505
SO-50 24 Jun 00:02:07 00:06:37 64° 238° (WSW) 00:11:06 436.795
QB50P2 24 Jun 00:02:12 00:05:50 26° 95° (E) 00:09:26 145.880/145.840
YUBILEINY 24 Jun 00:02:42 00:10:35 36° 291° (WNW) 00:18:35 435.215
PRISM 24 Jun 00:02:59 00:06:05 21° 294° (WNW) 00:09:10 437.425
FO-29 24 Jun 00:03:36 00:10:36 39° 296° (WNW) 00:17:41 435.910
BEESAT 3 24 Jun 00:06:36 00:07:19 10° 329° (NNW) 00:08:00 437.485
VELOX 1 24 Jun 00:06:52 00:11:07 53° 72° (ENE) 00:15:24 145.980
UNISAT 6 24 Jun 00:15:58 00:19:18 20° 297° (WNW) 00:22:36 437.425
EO-79 24 Jun 00:27:06 00:31:13 44° 99° (E) 00:35:19 145.935-145.965
BUGSAT 1 24 Jun 00:28:17 00:29:41 11° 89° (E) 00:31:04 437.445
NO-84 24 Jun 00:28:57 00:32:41 31° 337° (NNW) 00:36:36 435.350 FM
50 SAT 24 Jun 00:30:33 00:33:44 39° 72° (ENE) 00:36:55 437.505
DX 1 24 Jun 00:33:13 00:37:08 35° 69° (ENE) 00:41:04 434.975-435.025
SPROUT 24 Jun 00:42:56 00:47:08 59° 259° (W) 00:51:23 437.525
DUCHIFAT 1 24 Jun 00:43:27 00:47:39 54° 100° (E) 00:51:48 145.980
NANOSAT C BR1 24 Jun 00:50:50 00:55:07 75° 102° (ESE) 00:59:22 145.865
UKube-1 24 Jun 00:54:17 00:58:17 39° 69° (ENE) 01:02:18 .
POLYITAN 1 24 Jun 01:26:54 01:30:57 41° 289° (WNW) 01:34:58 437.675
ITUPSAT 1 24 Jun 01:28:19 01:29:46 11° 57° (ENE) 01:31:12 437.325
AIST 2D 24 Jun 01:31:57 01:33:33 13° 296° (WNW) 01:35:09 435.315
QB50P2 24 Jun 01:37:52 01:41:36 29° 292° (WNW) 01:45:18 145.880/145.840
BEESAT 24 Jun 01:38:24 01:40:55 14° 59° (ENE) 01:43:26 436.000
VELOX 1 24 Jun 01:45:17 01:47:53 15° 269° (W) 01:50:30 145.980
RS-15 24 Jun 01:47:04 01:57:21 29° 350° (N) 02:07:33 29.354- 29.394
Oscar 19 24 Jun 01:57:31 02:02:19 39° 98° (E) 02:07:05 437.125/150
BUGSAT 1 24 Jun 02:01:15 02:05:29 69° 287° (WNW) 02:09:42 437.445
EO-79 24 Jun 02:03:40 02:06:39 19° 296° (WNW) 02:09:37 145.935-145.965
50 SAT 24 Jun 02:05:24 02:06:44 12° 268° (W) 02:08:04 437.505
NO-84 24 Jun 02:08:12 02:11:21 19° 358° (N) 02:14:33 435.350 FM
DX 1 24 Jun 02:09:57 02:13:23 23° 266° (W) 02:16:51 434.975-435.025
DUCHIFAT 1 24 Jun 02:20:20 02:22:52 16° 297° (WNW) 02:25:25 145.980
NANOSAT C BR1 24 Jun 02:28:33 02:30:13 12° 300° (WNW) 02:31:53 145.865
UKube-1 24 Jun 02:31:16 02:34:26 20° 266° (W) 02:37:38 .
Gurwin Techsat 1B 24 Jun 02:35:39 02:40:53 55° 101° (E) 02:46:05 435.225
MOZHAYETS 4 24 Jun 03:00:35 03:05:04 50° 72° (ENE) 03:09:35
ITUPSAT 1 24 Jun 03:01:58 03:06:47 82° 75° (ENE) 03:11:38 437.325
BEESAT 24 Jun 03:13:17 03:18:04 77° 257° (WSW) 03:22:53 436.000
KKS-1 24 Jun 03:15:11 03:15:55 10° 58° (ENE) 03:16:40 437.445
AO-7 24 Jun 03:26:26 03:33:23 28° 94° (E) 03:40:17 .
Oscar 19 24 Jun 03:37:09 03:41:29 28° 295° (WNW) 03:45:47 437.125/150
CUBESAT XI-V 24 Jun 03:37:32 03:41:15 24° 66° (ENE) 03:44:58 437.345
NO-84 24 Jun 03:46:19 03:50:05 27° 19° (NNE) 03:53:49 435.350 FM
STARS 24 Jun 03:50:13 03:50:49 10° 58° (ENE) 03:51:25 437.465
AO-85 24 Jun 03:59:05 04:00:02 11° 33° (NNE) 04:00:59 145.980
RS-15 24 Jun 04:03:41 04:14:43 35° 25° (NNE) 04:25:20 29.354- 29.394
ITAMSAT 1 24 Jun 04:09:55 04:15:04 53° 101° (E) 04:20:10 435.822/435.867
Gurwin Techsat 1B 24 Jun 04:16:24 04:20:26 22° 298° (WNW) 04:24:27 435.225
MOZHAYETS 4 24 Jun 04:39:20 04:42:30 18° 269° (W) 04:45:41
ITUPSAT 1 24 Jun 04:43:35 04:45:12 12° 272° (W) 04:46:50 437.325
KKS-1 24 Jun 04:47:18 04:51:43 86° 77° (ENE) 04:56:12 437.445
BEESAT 3 24 Jun 05:03:23 05:06:17 19° 40° (NE) 05:09:10 437.485
CUBESAT XI-V 24 Jun 05:14:07 05:18:26 38° 263° (W) 05:22:46 437.345
AO-7 24 Jun 05:18:26 05:26:46 70° 293° (WNW) 05:35:03 .
STARS 24 Jun 05:22:02 05:26:24 86° 80° (E) 05:30:50 437.465
NO-84 24 Jun 05:23:46 05:28:10 89° 40° (NE) 05:32:27 435.350 FM
AO-85 24 Jun 05:37:11 05:41:13 59° 52° (NE) 05:45:30 145.980
ITAMSAT 1 24 Jun 05:50:10 05:54:09 22° 298° (WNW) 05:58:07 435.822/435.867
LilacSat-2 24 Jun 05:53:37 05:54:44 11° 89° (E) 05:55:50 437.200
XW-2B 24 Jun 05:56:27 05:57:34 11° 89° (E) 05:58:40 145.730 - 145.750
BEESAT 2 24 Jun 05:58:04 06:01:22 23° 43° (NE) 06:04:39 435.950
DOVE 4 24 Jun 06:09:15 06:13:53 44° 98° (E) 06:18:45 437.250
XW-2C 24 Jun 06:10:37 06:13:08 17° 92° (E) 06:15:38 145.795 - 145.815
RS-15 24 Jun 06:17:02 06:29:21 82° 54° (NE) 06:40:59 29.354- 29.394
KAITUO 1B 24 Jun 06:28:48 06:31:40 21° 94° (E) 06:34:31 145.475/437.950
BEESAT 3 24 Jun 06:40:15 06:44:13 58° 239° (WSW) 06:48:06 437.485
CUTE-I 24 Jun 06:40:28 06:45:23 35° 97° (E) 06:50:16 437.470
O/OREOS (USA 219) 24 Jun 06:43:18 06:46:36 20° 53° (NE) 06:49:53 437.305
STRAND 1 24 Jun 06:43:54 06:48:37 38° 68° (ENE) 06:53:21 437.568
NO-84 24 Jun 07:02:40 07:05:12 15° 236° (WSW) 07:07:41 435.350 FM
NUDT-PHONESAT 24 Jun 07:06:24 07:10:05 59° 101° (E) 07:13:42 437.300
AO-7 24 Jun 07:12:50 07:18:05 19° 315° (NW) 07:23:20 .
HO-68 24 Jun 07:13:58 07:19:37 24° 92° (E) 07:25:12 435.675
XW-2F 24 Jun 07:16:36 07:20:22 80° 283° (WNW) 07:24:06 145.980 - 146.000
AO-85 24 Jun 07:18:45 07:21:14 15° 248° (WSW) 07:23:48 145.980
XW-2D 24 Jun 07:19:24 07:23:10 68° 285° (WNW) 07:26:53 145.860 - 145.880
LilacSat-2 24 Jun 07:25:38 07:29:22 55° 286° (WNW) 07:33:03 437.200
SEEDS 24 Jun 07:28:23 07:30:31 14° 90° (E) 07:32:38 437.485
XW-2B 24 Jun 07:28:24 07:32:06 54° 286° (WNW) 07:35:46 145.730 - 145.750
BEESAT 2 24 Jun 07:35:26 07:39:18 43° 242° (WSW) 07:43:07 435.950
CUBEBUG 2 24 Jun 07:36:17 07:39:08 16° 89° (E) 07:41:57 437.445
CUTE 1.7 + AOD 2 24 Jun 07:41:24 07:45:06 29° 95° (E) 07:48:46 437.475
XW-2C 24 Jun 07:43:59 07:47:28 35° 289° (WNW) 07:50:54 145.795 - 145.815
DOVE 4 24 Jun 07:47:29 07:51:21 24° 294° (WNW) 07:55:22 437.250
